Regional Weather Roundup
Issued by NWS

Home | Current Version | Previous Version | Graphics & Text | Print | Product List | Glossary Off
Versions: 1 2 3 4 5 6 7 8 9 10 11 12 13 14 15 16 17 18 19 20 21 22 23 24 25 26 27 28 29 30 31 32 33 34 35 36 37 38 39 40 41 42 43 44 45 46 47 48 49 50

000
ASUS43 KTOP 052359
RWRKS

WEATHER ROUNDUP FOR KANSAS
NATIONAL WEATHER SERVICE GOODLAND KS
700 PM CDT TUE MAY 05 2015

NOTE:  "FAIR" INDICATES FEW OR NO CLOUDS BELOW 12,000 FEET WITH NO
SIGNIFICANT WEATHER AND/OR OBSTRUCTIONS TO VISIBILITY.

KSZ001>006-013>018-027>032-041>047-060100-
NORTHWEST KANSAS

CITY           SKY/WX    TMP DP  RH WIND       PRES   REMARKS
GOODLAND       LGT RAIN  56  55  97 SE18G33   29.79F
6HR MIN TEMP:  56; 6HR MAX TEMP:  59; 6HR PCP:  0.14;

HAYS           CLOUDY    61  54  77 SE22      29.87F
HILL CITY      LGT RAIN  60  56  86 SE12G22   29.86F FOG
6HR MIN TEMP:  60; 6HR MAX TEMP:  67; 6HR PCP:  0.02;

RUSSELL        LGT RAIN  61  58  90 SE22      29.88F
6HR MIN TEMP:  61; 6HR MAX TEMP:  70; 6HR PCP:  0.03;

$$

KSZ061>065-074>080-084>089-060100-
SOUTHWEST KANSAS

CITY           SKY/WX    TMP DP  RH WIND       PRES   REMARKS
DODGE CITY     CLOUDY    62  59  90 SE28      29.83S
6HR MIN TEMP:  58; 6HR MAX TEMP:  63; 6HR PCP:  0.18;

ELKHART          N/A     56  49  78 SW7         N/A
GARDEN CITY    CLOUDY    60  59  96 SE20G29   29.79S
6HR MIN TEMP:  57; 6HR MAX TEMP:  60; 6HR PCP:  0.16;

GREAT BEND     CLOUDY    61  55  82 SE22G28   29.88F
LIBERAL        CLOUDY    66  57  72 S15       29.80F
$$

KSZ066>073-081>083-090>101-060100-
SOUTHEAST KANSAS

CITY           SKY/WX    TMP DP  RH WIND       PRES   REMARKS
CHANUTE        CLOUDY    69  65  86 SE8       29.98F
6HR MIN TEMP:  66; 6HR MAX TEMP:  81; 6HR PCP:  0.11;

COFFEYVILLE    CLOUDY    70  65  84 S7        29.96F
6HR MIN TEMP:  66; 6HR MAX TEMP:  81; 6HR PCP:  0.17;

HUTCHINSON     LGT RAIN  64  59  83 SE15      29.92S
6HR MIN TEMP:  63; 6HR MAX TEMP:  77; 6HR PCP: TRACE;

MEDICINE LODGE   N/A     64  61  90 S12G24    29.89S
NEWTON         CLOUDY    64  54  68 S16G24    29.97R
PARSONS        CLOUDY    70  65  84 SE3       29.99S
6HR MIN TEMP:  65; 6HR MAX TEMP:  82; 6HR PCP:  0.06;

WICHITA INTL   LGT RAIN  65  61  87 SE15      29.91F
6HR MIN TEMP:  65; 6HR MAX TEMP:  78; 6HR PCP:  0.02;

WICHITA JABRA  LGT RAIN  65  58  78 S15       29.95R
6HR MIN TEMP:  65; 6HR MAX TEMP:  78; 6HR PCP:  0.01;

WICHITA MCCONL LGT RAIN  65  60  83 SE13      29.94S
WINFIELD       LGT RAIN  65  60  84 S10       29.97R
6HR MIN TEMP:  65; 6HR MAX TEMP:  79; 6HR PCP:  0.01;

$$

KSZ007>012-019>026-033>040-048>060-102>105-060100-
NORTHEAST KANSAS

CITY           SKY/WX    TMP DP  RH WIND       PRES   REMARKS
CONCORDIA      CLOUDY    72  54  53 S14G21    29.91F
6HR MIN TEMP:  72; 6HR MAX TEMP:  77;

EMPORIA        CLOUDY    69  60  73 SE14G20   29.95F
6HR MIN TEMP:  69; 6HR MAX TEMP:  79; 6HR PCP:  0.01;

LAWRENCE       LGT RAIN  67  60  78 SW22G35   30.00R
6HR MIN TEMP:  67; 6HR MAX TEMP:  81; 6HR PCP: TRACE;

MANHATTAN      CLOUDY    75  59  57 S12       29.92F
6HR MIN TEMP:  74; 6HR MAX TEMP:  80;

OLATHE IND     CLOUDY    67  62  84 SW10      30.03R
6HR MIN TEMP:  65; 6HR MAX TEMP:  82; 6HR PCP:  0.14;

OLATHE EXE     CLOUDY    69  64  84 SE5       30.00F
6HR MIN TEMP:  68; 6HR MAX TEMP:  80; 6HR PCP:  0.06;

SALINA         CLOUDY    70  55  59 S8        29.91F
6HR MIN TEMP:  70; 6HR MAX TEMP:  79;

TOPEKA BILLARD RAIN      66  61  84 S16G30    30.01R
6HR MIN TEMP:  66; 6HR MAX TEMP:  80; 6HR PCP:  0.02;

TOPEKA FORBES  RAIN      66  61  84 S16       30.00R
6HR MIN TEMP:  66; 6HR MAX TEMP:  82; 6HR PCP:  0.10;

$$


USA.gov is the U.S. government's official web portal to all federal, state and local government web resources and services.